Alexandria, LA

2:11 AM CDT on September 30, 2016 (GMT -0500)
Alexandria International

Weather History for KAEX - January, 2009

Change the Weather History Date:

Thursday, January 8, 2009

  Actual Average Record
Temperature  
Mean Temperature 59 °F 49 °F  
Max Temperature 70 °F 59 °F 79 °F (1907)
Min Temperature 47 °F 39 °F 17 °F (1942)
Degree Days  
Heating Degree Days 6 16  
Month to date heating degree days 67 128  
Since 1 July heating degree days 832 917  
Growing Degree Days 8 (Base 50)    
Moisture  
Dew Point 41 °F    
Average Humidity 55    
Maximum Humidity 80    
Minimum Humidity 33    
Precipitation  
Precipitation 0.00 in 0.15 in 2.90 in (1961)
Month to date precipitation 0.87 1.19  
Year to date precipitation 0.87 1.19  
Snow  
Snow 0.00 in - T in (1971)
Month to date snowfall 0.0  
Since 1 July snowfall 0.0  
Snow Depth 0.00 in    
Sea Level Pressure  
Sea Level Pressure 29.98 in    
Wind  
Wind Speed 5 mph (SW)    
Max Wind Speed 7 mph    
Max Gust Speed -    
Visibility 10 miles    
Events      
T = Trace of Precipitation, MM = Missing Value Source: NWS Daily Summary

Daily Weather History Graph

Daily Weather History Graph

Search for Another Location

Airport or City:

Trip Planner

Search our weather history database for the weather conditions in past years. The results will help you decide how hot, cold, wet, or windy it might be!

Date:

Astronomy

Jan. 08, 2009 Rise Set
Actual Time 7:10 AM CST 5:24 PM CST
Civil Twilight 6:43 AM CST 5:50 PM CST
Nautical Twilight 6:13 AM CST 6:20 PM CST
Astronomical Twilight 5:44 AM CST 6:50 PM CST
Moon 2:45 PM CST (1/8) 4:39 AM CST (1/8)
Length of Visible Light 11h 07m
Length of Day
10h 14m
Waxing Gibbous, 91% of the Moon is Illuminated
Jan 8
Waxing Gibbous
Jan 10
Full
Jan 17
Last Quarter
Jan 26
New
Feb 2
First Quarter

Hourly Weather History & Observations

Time (CST) Temp. Dew Point Humidity Pressure Visibility Wind Dir Wind Speed Gust Speed Precip Events Conditions
12:53 AM 51.1 °F 39.0 °F 63% 29.88 in 10.0 mi SW 6.9 mph - N/A   Clear
1:53 AM 52.0 °F 37.9 °F 59% 29.89 in 10.0 mi WSW 6.9 mph - N/A   Clear
2:53 AM 52.0 °F 37.0 °F 57% 29.90 in 10.0 mi West 4.6 mph - N/A   Clear
3:53 AM 52.0 °F 37.9 °F 59% 29.91 in 10.0 mi WSW 5.8 mph - N/A   Clear
4:53 AM 52.0 °F 39.9 °F 63% 29.91 in 10.0 mi West 4.6 mph - N/A   Clear
5:53 AM 51.1 °F 41.0 °F 68% 29.93 in 10.0 mi WSW 5.8 mph - N/A   Clear
6:53 AM 46.9 °F 41.0 °F 80% 29.95 in 10.0 mi WSW 5.8 mph - N/A   Clear
7:53 AM 51.1 °F 41.0 °F 68% 29.97 in 10.0 mi Calm Calm - N/A   Clear
8:53 AM 55.0 °F 42.1 °F 62% 30.00 in 10.0 mi West 5.8 mph - N/A   Clear
9:53 AM 60.1 °F 44.1 °F 55% 30.02 in 10.0 mi WNW 5.8 mph - N/A   Clear
10:53 AM 66.0 °F 45.0 °F 47% 30.02 in 10.0 mi North - - N/A   Clear
11:53 AM 68.0 °F 39.9 °F 36% 29.99 in 10.0 mi NNW 5.8 mph - N/A   Clear
12:53 PM 66.9 °F 41.0 °F 39% 29.98 in 10.0 mi West 3.5 mph - N/A   Clear
1:53 PM 68.0 °F 42.1 °F 39% 29.97 in 10.0 mi SW 4.6 mph - N/A   Clear
2:53 PM 70.0 °F 41.0 °F 35% 29.97 in 10.0 mi Calm Calm - N/A   Clear
3:53 PM 70.0 °F 39.9 °F 33% 29.98 in 8.0 mi Calm Calm - N/A   Clear
4:53 PM 69.1 °F 43.0 °F 39% 29.99 in 9.0 mi Calm Calm - N/A   Clear
5:53 PM 64.0 °F 39.9 °F 41% 30.00 in 10.0 mi East 6.9 mph - N/A   Clear
6:53 PM 60.1 °F 39.9 °F 47% 30.01 in 10.0 mi ENE 5.8 mph - N/A   Clear
7:53 PM 55.0 °F 41.0 °F 59% 30.03 in 10.0 mi East 5.8 mph - N/A   Clear
8:53 PM 55.9 °F 39.0 °F 53% 30.04 in 10.0 mi East 4.6 mph - N/A   Clear
9:53 PM 52.0 °F 39.9 °F 63% 30.04 in 10.0 mi SE 4.6 mph - N/A   Clear
10:53 PM 48.0 °F 39.9 °F 74% 30.04 in 10.0 mi ESE 4.6 mph - N/A   Clear
11:53 PM 48.9 °F 39.9 °F 71% 30.04 in 10.0 mi SE 4.6 mph - N/A   Clear